TimeMDT,TemperatureF,Dew PointF,Humidity,Sea Level PressureIn,VisibilityMPH,Wind Direction,Wind SpeedMPH,Gust SpeedMPH,PrecipitationIn,Events,Conditions,WindDirDegrees,DateUTC
12:15 AM,41.0,19.4,42,30.44,10.0,WSW,9.2,21.9,N/A,,Scattered Clouds,250,2012-10-04 06:15:00
12:35 AM,41.0,17.6,39,30.44,10.0,WSW,8.1,24.2,N/A,,Clear,250,2012-10-04 06:35:00
12:55 AM,41.0,8.6,26,30.43,10.0,WSW,20.7,25.3,N/A,,Clear,250,2012-10-04 06:55:00
1:15 AM,41.0,8.6,26,30.43,10.0,WSW,18.4,26.5,N/A,,Clear,240,2012-10-04 07:15:00
1:35 AM,41.0,8.6,26,30.43,10.0,SW,15.0,21.9,N/A,,Scattered Clouds,230,2012-10-04 07:35:00
1:55 AM,44.6,8.6,23,30.43,10.0,SW,20.7,29.9,N/A,,Scattered Clouds,230,2012-10-04 07:55:00
2:15 AM,42.8,6.8,23,30.43,10.0,SW,17.3,31.1,N/A,,Scattered Clouds,230,2012-10-04 08:15:00
2:35 AM,41.0,5.0,23,30.43,10.0,SW,11.5,34.5,N/A,,Scattered Clouds,230,2012-10-04 08:35:00
2:55 AM,41.0,5.0,23,30.43,10.0,SW,15.0,28.8,N/A,,Mostly Cloudy,220,2012-10-04 08:55:00
3:15 AM,42.8,5.0,21,30.43,10.0,SW,19.6,31.1,N/A,,Overcast,230,2012-10-04 09:15:00
3:35 AM,42.8,6.8,23,30.43,10.0,SW,17.3,32.2,N/A,,Overcast,220,2012-10-04 09:35:00
3:55 AM,42.8,6.8,23,30.43,10.0,SW,13.8,28.8,N/A,,Mostly Cloudy,230,2012-10-04 09:55:00
4:15 AM,44.6,8.6,23,30.42,10.0,SW,17.3,28.8,N/A,,Mostly Cloudy,220,2012-10-04 10:15:00
4:35 AM,44.6,8.6,23,30.42,10.0,SSW,20.7,33.4,N/A,,Overcast,210,2012-10-04 10:35:00
4:55 AM,42.8,8.6,25,30.42,10.0,SW,19.6,28.8,N/A,,Overcast,220,2012-10-04 10:55:00
5:15 AM,42.8,8.6,25,30.42,10.0,SW,20.7,40.3,N/A,,Overcast,220,2012-10-04 11:15:00
5:35 AM,42.8,8.6,25,30.42,10.0,SW,18.4,29.9,N/A,,Overcast,230,2012-10-04 11:35:00
5:55 AM,42.8,8.6,25,30.42,10.0,SW,17.3,31.1,N/A,,Overcast,230,2012-10-04 11:55:00
6:15 AM,42.8,8.6,25,30.42,10.0,SW,15.0,24.2,N/A,,Overcast,230,2012-10-04 12:15:00
6:35 AM,42.8,8.6,25,30.42,10.0,SW,16.1,24.2,N/A,,Overcast,230,2012-10-04 12:35:00
6:55 AM,42.8,10.4,27,30.41,10.0,SW,16.1,24.2,N/A,,Overcast,220,2012-10-04 12:55:00
7:15 AM,42.8,10.4,27,30.41,10.0,South,15.0,21.9,N/A,,Overcast,190,2012-10-04 13:15:00
7:35 AM,44.6,12.2,27,30.41,10.0,SW,12.7,24.2,N/A,,Mostly Cloudy,220,2012-10-04 13:35:00
7:55 AM,44.6,12.2,27,30.41,10.0,SW,11.5,21.9,N/A,,Overcast,220,2012-10-04 13:55:00
8:15 AM,44.6,12.2,27,30.41,10.0,SW,13.8,25.3,N/A,,Overcast,230,2012-10-04 14:15:00
8:35 AM,44.6,12.2,27,30.41,10.0,SW,15.0,25.3,N/A,,Overcast,230,2012-10-04 14:35:00
8:55 AM,44.6,12.2,27,30.42,10.0,SW,12.7,24.2,N/A,,Overcast,220,2012-10-04 14:55:00
9:15 AM,44.6,12.2,27,30.42,10.0,SW,15.0,23.0,N/A,,Overcast,220,2012-10-04 15:15:00
9:35 AM,44.6,14.0,29,30.41,10.0,SW,16.1,31.1,N/A,,Overcast,230,2012-10-04 15:35:00
9:55 AM,44.6,14.0,29,30.41,10.0,WSW,21.9,35.7,N/A,,Overcast,240,2012-10-04 15:55:00
10:15 AM,46.4,14.0,27,30.40,10.0,WSW,26.5,34.5,N/A,,Overcast,240,2012-10-04 16:15:00
10:22 AM,44.6,14.0,29,30.41,10.0,WSW,21.9,35.7,N/A,,Overcast,240,2012-10-04 16:22:00
11:35 AM,46.4,14.0,27,30.41,-9999.0,WSW,23.0,-,N/A,,Unknown,250,2012-10-04 17:35:00
11:55 AM,46.4,14.0,27,30.40,10.0,WSW,25.3,36.8,N/A,,Mostly Cloudy,240,2012-10-04 17:55:00
12:35 PM,51.8,14.0,22,30.39,10.0,West,19.6,38.0,N/A,,Mostly Cloudy,260,2012-10-04 18:35:00
12:55 PM,50.0,12.2,22,30.38,10.0,WSW,26.5,40.3,N/A,,Mostly Cloudy,240,2012-10-04 18:55:00
1:15 PM,50.0,12.2,22,30.38,10.0,SW,18.4,40.3,N/A,,Mostly Cloudy,230,2012-10-04 19:15:00
1:35 PM,50.0,12.2,22,30.36,10.0,WSW,26.5,35.7,0.04,,Unknown,250,2012-10-04 19:35:00
1:55 PM,50.0,8.6,19,30.34,10.0,WSW,36.8,54.1,0.04,,Mostly Cloudy,250,2012-10-04 19:55:00
2:15 PM,50.0,8.6,19,30.34,10.0,WSW,36.8,55.2,N/A,,Mostly Cloudy,250,2012-10-04 20:15:00
2:35 PM,50.0,8.6,19,30.34,10.0,WSW,36.8,54.1,N/A,,Mostly Cloudy,240,2012-10-04 20:35:00
2:55 PM,50.0,12.2,22,30.32,10.0,WSW,41.4,48.3,N/A,,Overcast,250,2012-10-04 20:55:00
3:15 PM,48.2,12.2,24,30.34,10.0,WSW,29.9,44.9,N/A,,Overcast,250,2012-10-04 21:15:00
3:35 PM,46.4,12.2,25,30.36,10.0,West,31.1,61.0,N/A,,Overcast,270,2012-10-04 21:35:00
4:15 PM,51.8,8.6,18,30.35,10.0,WSW,25.3,42.6,N/A,,Mostly Cloudy,250,2012-10-04 22:15:00
4:35 PM,50.0,10.4,20,30.34,10.0,WSW,28.8,40.3,N/A,,Overcast,250,2012-10-04 22:35:00
4:55 PM,48.2,10.4,22,30.35,10.0,West,24.2,35.7,N/A,,Overcast,260,2012-10-04 22:55:00
5:15 PM,48.2,10.4,22,30.36,10.0,West,17.3,32.2,N/A,,Overcast,270,2012-10-04 23:15:00
5:35 PM,46.4,8.6,22,30.34,10.0,West,31.1,36.8,N/A,,Mostly Cloudy,260,2012-10-04 23:35:00
5:55 PM,46.4,8.6,22,30.36,10.0,West,19.6,41.4,N/A,,Mostly Cloudy,260,2012-10-04 23:55:00
6:15 PM,46.4,6.8,20,30.35,10.0,West,26.5,35.7,N/A,,Mostly Cloudy,270,2012-10-05 00:15:00
6:35 PM,44.6,8.6,23,30.34,10.0,WSW,28.8,38.0,N/A,,Mostly Cloudy,250,2012-10-05 00:35:00
6:55 PM,44.6,10.4,25,30.36,10.0,WSW,18.4,39.1,N/A,,Mostly Cloudy,250,2012-10-05 00:55:00
7:15 PM,44.6,10.4,25,30.37,10.0,WSW,15.0,31.1,N/A,,Mostly Cloudy,240,2012-10-05 01:15:00
7:35 PM,44.6,10.4,25,30.36,10.0,WSW,16.1,31.1,N/A,,Scattered Clouds,250,2012-10-05 01:35:00
7:55 PM,44.6,10.4,25,30.36,10.0,West,24.2,43.7,N/A,,Scattered Clouds,260,2012-10-05 01:55:00
8:15 PM,44.6,12.2,27,30.35,10.0,WSW,25.3,39.1,N/A,,Scattered Clouds,250,2012-10-05 02:15:00
8:35 PM,44.6,14.0,29,30.34,10.0,WSW,24.2,31.1,N/A,,Scattered Clouds,250,2012-10-05 02:35:00
8:55 PM,42.8,19.4,39,30.35,10.0,SW,17.3,29.9,N/A,,Mostly Cloudy,220,2012-10-05 02:55:00
9:15 PM,41.0,21.2,45,30.35,10.0,SW,21.9,34.5,N/A,,Overcast,220,2012-10-05 03:15:00
9:35 PM,41.0,23.0,49,30.34,5.0,WSW,29.9,46.0,N/A,,Unknown,240,2012-10-05 03:35:00
9:55 PM,41.0,21.2,45,30.33,10.0,WSW,34.5,49.5,N/A,,Overcast,250,2012-10-05 03:55:00
10:15 PM,41.0,23.0,49,30.33,10.0,WSW,35.7,52.9,N/A,,Overcast,250,2012-10-05 04:15:00
10:35 PM,41.0,24.8,53,30.33,4.0,WSW,31.1,44.9,N/A,,Unknown,250,2012-10-05 04:35:00
10:55 PM,37.4,26.6,65,30.34,10.0,SW,13.8,29.9,N/A,,Overcast,230,2012-10-05 04:55:00
11:15 PM,37.4,30.2,75,30.34,5.0,SW,16.1,21.9,N/A,Snow,Light Snow,220,2012-10-05 05:15:00
11:35 PM,37.4,32.0,81,30.34,4.0,SSW,13.8,28.8,N/A,Snow,Light Snow,210,2012-10-05 05:35:00
11:55 PM,35.6,30.2,81,30.33,7.0,SW,13.8,26.5,N/A,Snow,Light Snow,220,2012-10-05 05:55:00